Location: St. Louis
(38.6270°N, 90.1994°W)
Time: 07:37:46
(UTC-06:00)

Transit 2A Rocket - Pass Details

Date: 06 December 2021
Orbit: 584 x 917 km, 66.7° (Epoch: 23 January)

Event Time Altitude Azimuth Distance (km) Brightness Sun altitude
Rises 05:34:12 0° 169° (SSE) 3,248 8.6 -17.2°
Reaches altitude 10° 05:37:01 10° 154° (SSE) 2,383 8.1 -16.6°
Maximum altitude 05:41:10 22° 105° (ESE) 1,762 7.9 -15.9°
Drops below altitude 10° 05:45:34 10° 56° (ENE) 2,539 8.2 -15.0°
Sets 05:48:39 0° 43° (NE) 3,519 8.8 -14.5°
